Flag for Canada Weather past 2 weeks in Cape Dorset, Nunavut Territory, Canada

Now
43 °F

Fog.


Feels Like: 39 °F
Forecast: 44 / 56 °F
Wind: 7 mph from Southeast

Location: Cape Dorset

Current Time: Aug 1, 2014 at 12:02:57 PM

Latest Report: Aug 1, 2014 at 11:00 AM


Visibility: 15 mi

Pressure: 30.06 "Hg

Humidity: 87%

Dew point: 39 °F

Location of Cape DorsetLocation

Historic Weather in Cape Dorset — Graph

°F

Cape Dorset temperature yesterday

Maximum temperature yesterday: 68 °F (at 1:00 PM)
Minimum temperature yesterday: 55 °F (at 4:00 AM)
Average temperature yesterday: 63 °F

Past Weeks' High & Low Weather Summary

 TemperatureHumidityPressure
High70 °F (Jul 30, 11:00 AM)100% (Jul 17, 12:59 PM)30.12 "Hg (Jul 17, 12:59 PM)
Low37 °F (Jul 19, 4:00 AM)48% (Jul 27, 3:00 PM)29.39 "Hg (Jul 23, 6:00 AM)
Average52 °F74%29.79 "Hg
* Reported Jul 17 11:00 AM — Aug 1 11:00 AM, Cape Dorset, Weather by CustomWeather, © 2014

Note: Actual official high and low records may vary slightly from our data, if they occured in-between our weather recording intervals... More about our weather records

Advertising

Cape Dorset weather history for previous 24 hours

 ConditionsComfort  
Time TempWeatherWind HumidityBarometerVisibility
11:00 AM
Aug 1
43 °FFog.7 mph87%30.06 "Hg15 mi
10:00 AM45 °FFog.10 mph81%30.07 "Hg15 mi
9:00 AM45 °FFog.5 mph81%30.07 "Hg15 mi
8:00 AM45 °FFog.2 mph87%30.07 "Hg3 mi
7:00 AM45 °FFog.5 mph87%30.06 "Hg3 mi
6:00 AM54 °FSunny.7 mph82%30.06 "Hg9 mi
5:00 AM57 °FSunny.6 mph77%30.06 "Hg9 mi
4:00 AM57 °FSunny.No wind72%30.06 "Hg9 mi
3:00 AM59 °FClear.3 mph68%30.06 "Hg9 mi
2:00 AM61 °FClear.No wind63%30.06 "Hg9 mi
1:00 AM61 °FClear.2 mph63%30.06 "Hg9 mi
12:00 AM61 °FClear.2 mph68%30.07 "Hg9 mi
11:00 PM
Jul 31
61 °FClear.3 mph68%30.08 "Hg9 mi
10:00 PM64 °FClear.5 mph64%30.07 "Hg9 mi
9:00 PM64 °FSunny.No wind60%30.06 "Hg9 mi
8:00 PM68 °FSunny.6 mph53%30.06 "Hg9 mi
7:00 PM68 °FSunny.8 mph53%30.06 "Hg9 mi
6:00 PM68 °FSunny.7 mph53%30.06 "Hg9 mi
5:00 PM68 °FSunny.9 mph53%30.06 "Hg9 mi
4:00 PM66 °FSunny.9 mph56%30.06 "Hg9 mi
3:00 PM66 °FSunny.9 mph52%30.06 "Hg9 mi
2:00 PM68 °FSunny.9 mph53%30.06 "Hg9 mi
1:00 PM68 °FSunny.9 mph53%30.06 "Hg9 mi
12:03 PM66 °FSunny.8 mph56%30.06 "Hg4 mi
12:00 PM66 °FScattered clouds.6 mph56%30.06 "Hg15 mi
Weather by CustomWeather, © 2014

See weather overviewHow to use our weather pages